Location: Palau
(42.3086°N, 3.1507°E)
Time: 21:26:16
(UTC+00:00)

STARLINK-1218 - Visible Passes

Search period start: 29 September 2020 00:00
Search period end: 09 October 2020 00:00
Orbit: 549 x 550 km, 53.0° (Epoch: 29 September)

Date Brightness Start Highest point End Pass type
(mag) Time Alt. Az. Time Alt. Az. Time Alt. Az.
29 Sep 6.0 02:49:46 20° NNE 02:49:46 20° NNE 02:52:09 10° ENE visible
29 Sep 4.1 04:25:26 12° NW 04:29:11 58° NNE 04:33:16 10° ESE visible
30 Sep 6.1 02:44:56 20° NE 02:44:56 20° NE 02:46:58 10° ENE visible
30 Sep 3.7 04:20:38 17° NW 04:23:42 75° NE 04:27:51 10° ESE visible
01 Oct 6.3 02:40:15 18° ENE 02:40:15 18° ENE 02:41:46 10° ENE visible
01 Oct 3.5 04:15:56 26° NW 04:18:13 84° SW 04:22:21 10° SE visible
02 Oct 6.5 02:35:42 15° ENE 02:35:42 15° ENE 02:36:32 10° E visible
02 Oct 3.6 04:11:24 40° WNW 04:12:40 62° SW 04:16:45 10° SE visible
03 Oct 3.9 04:07:03 46° SW 04:07:05 46° SW 04:11:02 10° SSE visible
04 Oct 4.9 04:02:51 26° S 04:02:51 26° S 04:05:12 10° SSE visible
05 Oct 6.0 03:58:47 12° S 03:58:47 12° S 03:59:12 10° S visible
05 Oct 5.8 19:26:14 10° SSW 19:27:07 15° SSW 19:27:07 15° SSW visible
06 Oct 4.8 19:20:25 10° SW 19:22:46 31° SSW 19:22:46 31° SSW visible
07 Oct 3.8 19:14:41 10° SW 19:18:12 60° SSW 19:18:12 60° SSW visible
08 Oct 3.5 19:09:03 10° SW 19:13:11 87° NW 19:13:28 77° NE visible
